[Iaude] MPEC J231: 2024 JD7 [a=2.30,e=0.71,i=9.7,H=24.6]

mpec at cfa.harvard.edu mpec at cfa.harvard.edu
Thu May 9 10:38:36 EDT 2024


M.P.E.C. 2024-J231                                  Issued 2024 May 9, 14:36 UT

     The Minor Planet Electronic Circulars contain information on unusual
         minor planets, routine data on comets and natural satellites,
         and occasional editorial announcements.  They are published
    on behalf of Division F of the International Astronomical Union by the
          Minor Planet Center, Smithsonian Astrophysical Observatory,
                          Cambridge, MA 02138, U.S.A.
			  
             Prepared using the Tamkin Foundation Computer Network

                              MPC at CFA.HARVARD.EDU
            URL https://www.minorplanetcenter.net/    ISSN 1523-6714

                                    2024 JD7                                    


Observations:
     K24J07D* C2024 05 04.18798116 20 37.634-29 24 16.16         18.23oVEJ231W68
     K24J07D  C2024 05 04.19079216 20 33.482-29 23 03.19         18.18oVEJ231W68
     K24J07D  C2024 05 04.20134716 20 18.252-29 18 33.26         18.15oVEJ231W68
     K24J07D 1C2024 05 09.34908915 36 15.484-13 18 35.89         20.33GVEJ231G96
     K24J07D 1C2024 05 09.35420615 36 14.375-13 18 12.71         20.84GVEJ231G96
     K24J07D 1C2024 05 09.35932115 36 13.201-13 17 47.83         20.07GVEJ231G96
     K24J07D 1C2024 05 09.36445615 36 12.002-13 17 24.18         20.16GVEJ231G96
     K24J07D KC2024 05 09.58665515 35 30.346-12 58 47.46         20.2 GVEJ231474
     K24J07D KC2024 05 09.59030215 35 29.570-12 58 31.30         20.2 GVEJ231474
     K24J07D KC2024 05 09.59394715 35 28.805-12 58 15.06         20.3 GVEJ231474

Observer details:
474 Mount John Observatory, Lake Tekapo.  Observers A. C. Gilmore, P. M.
    Kilmartin.  Measurer P. M. Kilmartin.  1.0-m f/7.7 Reflector + CCD.
G96 Mt. Lemmon Survey.  Observer J. K. Hogan.  Measurers T. Beuden, V. F.
    Carvajal, D. Fay, J. B. Fazekas, D. C. Fuls, A. R. Gibbs, A. D. Grauer, H.
    Groeller, J. K. Hogan, R. A. Kowalski, S. M. Larson, G. J. Leonard, D.
    Rankin, R. L. Seaman, F. C. Shelly, K. W. Wierzchos.  1.5-m reflector +
    10K CCD.
W68 ATLAS Chile, Rio Hurtado.  Observers L. Denneau, R. Siverd, J. Tonry, H.
    Weiland.  Measurers L. Denneau, N. Erasmus, A. Fitzsimmons, J. Robinson,
    R. Siverd, J. Tonry, H. Weiland.  0.5-m Reflector + CCD.

Orbital elements:
2024 JD7                                                 Earth MOID = 0.0140 AU
Epoch 2024 Mar. 31.0 TT = JDT 2460400.5                 MPC                     
M   4.08167              (2000.0)            P               Q                  
n   0.28269366     Peri.  275.15645     -0.77347769     -0.62186663             
a   2.2992808      Node   226.45954     +0.62759982     -0.72440936             
e   0.7122069      Incl.    9.73178     +0.08860433     -0.29751130             
P   3.49           H   24.62          G   0.15           U   9                  
Residuals in seconds of arc
240504 W68  0.9+  1.3-    240509 G96  0.4+  0.5-    240509 474  0.1-  0.0
240504 W68  0.3-  0.1-    240509 G96  0.2+  0.4+    240509 474  0.1-  0.1+
240504 W68  0.6-  1.3+    240509 G96  0.3-  0.1+
240509 G96  0.4-  0.2+    240509 474  0.1+  0.1-

Ephemeris:
2024 JD7                 a,e,i = 2.30, 0.71, 10                  q = 0.6617
Date    TT    R. A. (2000) Decl.     Delta      r    Elong.  Phase     V
2024 04 09    02 56 59.0 -00 27 04   0.2627  0.7782    27.5   143.5    28.5
...
2024 04 24    02 43 15.2 -09 44 15   0.08439 0.9294    24.3   153.5    28.3
...
2024 05 02    18 39 32.6 -54 44 51   0.02238 1.0190   119.3    59.6    18.5
...
2024 05 08    15 41 28.9 -15 22 04   0.07941 1.0876   170.0     9.3    19.9
2024 05 09    15 37 27.1 -13 45 49   0.09051 1.0991   171.3     8.0    20.2
2024 05 10    15 34 19.4 -12 30 41   0.1017  1.1106   171.9     7.4    20.4
...
2024 05 16    15 24 25.3 -08 34 57   0.1711  1.1796   169.3     9.1    21.8
...
2024 05 24    15 19 48.6 -06 50 29   0.2683  1.2711   162.5    13.9    23.1
...
2024 06 08    15 19 27.1 -06 26 10   0.4682  1.4389   149.7    20.8    24.8

A. U. Tomatic                (C) Copyright 2024 MPC           M.P.E.C. 2024-J231





More information about the Iaude mailing list